P/2016 WM48 ( Lemmon )

Japanese version
Home page
Updated on July 8, 2017

---------------------------------------------------------------------

* Profile

Discovery Date November 30, 2016
Magnitude 19.0 mag
Discoverer R. A. Kowalski (Mount Lemmon Survey)

* Pictures

* Orbital Elements

Epoch 2017 Feb. 16.0 TT = JDT 2457800.5
T 2017 Feb. 26.78619 TT                                 MPCW
q   1.7480642            (2000.0)            P               Q
n   0.04201189     Peri.   35.85722     +0.64109538     +0.03022034
a   8.1951060      Node    59.87472     +0.31182499     -0.92328487
e   0.7866941      Incl.  117.54821     +0.70125736     +0.38292528
P  23.46
From 170 observations 2016 Nov. 30-2017 June 5, mean residual 0".4.

* Magnitudes Graph

        m1 = 14.0 + 5 log d + 10.0 log r

---------------------------------------------------------------------

The orbital elements are published on M.P.E.C. 2017-N58.
The magnitudes graphs are made with Comet for Windows.

---------------------------------------------------------------------

Copyright(C) Seiichi Yoshida (comet@aerith.net). All rights reserved.